This demonstration page uses our WeatherBlox Daily Observations layout. Learn more.

Left ArrowRight Arrow

39.95238, -75.16362

Hourly Observations for May 26, 2015

Temp ( °F °C ) Dew Point ( °F °C ) Humidity (%) Winds ( mph kmh ) Pressure ( in mb ) Visibility ( mi km ) Precip ( " mm )
12:54 am 00:54 Clear 69 20.6 53 11.7 57 57 SSW 7 11 30.22 1023 10 16 0.00 0.00
1:54 am 01:54 Clear 69 20.6 53 11.7 57 57 SSW 8 13 30.21 1023 10 16 0.00 0.00
2:54 am 02:54 Clear 67 19.4 54 12.2 63 63 SSW 9 15 30.21 1023 10 16 0.00 0.00
3:54 am 03:54 Mostly Clear 66 18.9 56 13.3 70 70 S 8 13 30.21 1023 10 16 0.00 0.00
4:54 am 04:54 Partly Cloudy 66 18.9 57 13.9 73 73 S 9 15 30.20 1023 10 16 0.00 0.00
5:54 am 05:54 Partly Cloudy 66 18.9 59 15 78 78 S 9 15 30.22 1023 10 16 0.00 0.00
6:54 am 06:54 Partly Cloudy 67 19.4 60 15.6 79 79 S 10 17 30.23 1024 10 16 0.00 0.00
7:54 am 07:54 Partly Cloudy 71 21.7 60 15.6 68 68 SW 13 20 30.24 1024 10 16 0.00 0.00
8:54 am 08:54 Partly Cloudy 74 23.3 61 16.1 64 64 SW 15 24 30.24 1024 10 16 0.00 0.00
9:54 am 09:54 Mostly Sunny 77 25 61 16.1 58 58 SW 10 17 30.24 1024 10 16 0.00 0.00
10:54 am 10:54 Mostly Sunny 79 26.1 61 16.1 54 54 SSW 13 20 30.23 1024 10 16 0.00 0.00
11:54 am 11:54 Mostly Sunny 83 28.3 62 16.7 49 49 WSW 18 30 30.22 1023 10 16 0.00 0.00
12:54 pm 12:54 Partly Cloudy 84 28.9 62 16.7 48 48 WSW 15 24 30.20 1023 10 16 0.00 0.00
1:54 pm 13:54 Mostly Cloudy 86 30 61 16.1 43 43 SW 16 26 30.19 1022 10 16 0.00 0.00
2:54 pm 14:54 Mostly Cloudy 88 31.1 62 16.7 42 42 WSW 16 26 30.17 1022 10 16 0.00 0.00
3:54 pm 15:54 Mostly Cloudy 87 30.6 61 16.1 42 42 SW 15 24 30.16 1021 10 16 0.00 0.00
4:54 pm 16:54 Mostly Cloudy 87 30.6 61 16.1 42 42 SSW 15 24 30.15 1021 10 16 0.00 0.00
5:54 pm 17:54 Mostly Cloudy 87 30.6 62 16.7 43 43 SSW 13 20 30.14 1021 10 16 0.00 0.00
6:54 pm 18:54 Mostly Cloudy 85 29.4 63 17.2 48 48 SW 13 20 30.13 1020 10 16 0.00 0.00
7:54 pm 19:54 Mostly Cloudy 80 26.7 64 17.8 58 58 SSE 12 19 30.14 1021 10 16 0.00 0.00
8:54 pm 20:54 Mostly Cloudy 77 25 64 17.8 64 64 S 13 20 30.15 1021 10 16 0.00 0.00
9:54 pm 21:54 Mostly Cloudy 77 25 64 17.8 64 64 S 14 22 30.18 1022 10 16 0.00 0.00
10:54 pm 22:54 Partly Cloudy 75 23.9 63 17.2 66 66 S 12 19 30.18 1022 10 16 0.00 0.00
11:54 pm 23:54 Mostly Clear 74 23.3 63 17.2 69 69 SSW 9 15 30.18 1022 10 16 0.00 0.00

Powered by AerisWeather